{"data":{"norad_id":56319,"epoch":"2026-09-20T22:00:03.000096Z","epoch_age_seconds":72650,"freshness":"FRESH","line1":"1 56319U 23058C   26263.91670139  .00075550  00000+0  36416-2 0  9990","line2":"2 56319  97.2840 257.8610 0002791  88.6536 220.4399 15.18400363  5791","mean_motion":15.18400363,"eccentricity":0.0002791,"inclination_deg":97.284,"raan_deg":257.861,"arg_perigee_deg":88.6536,"mean_anomaly_deg":220.4399,"bstar":0.0036416,"rev_number":579,"period_min":94.836647506781,"perigee_km":508.75195154214,"apogee_km":512.59728618779,"semimajor_km":6888.811618865,"source":"CELESTRAK","updated_at":"2026-09-21T09:00:33.400814Z"}}